Location: Tucson
(32.2217°N, 110.9265°W)
Time: 07:48:35
(UTC-07:00)

Tiros 1 - Pass Details

Date: 29 October 2021
Orbit: 629 x 664 km, 48.4° (Epoch: 26 November)

Event Time Altitude Azimuth Distance (km) Brightness Sun altitude
Rises 15:44:41 0° 300° (WNW) 2,952 10.9 20.6°
Reaches altitude 10° 15:47:11 10° 291° (WNW) 2,033 10.3 20.2°
Maximum altitude 15:51:22 33° 228° (SW) 1,070 10.2 19.4°
Drops below altitude 10° 15:55:31 10° 164° (SSE) 2,005 9.9 18.7°
Sets 15:57:59 0° 154° (SSE) 2,905 10.6 18.2°
